Terminal Aerodrome Forecast
Issued by NWS Omaha/Valley, NE

Home | Current Version | Previous Version | Graphics & Text | Print | Product List | Glossary On
Versions: 1 2 3 4 5 6 7 8 9 10 11 12 13 14 15 16 17 18 19 20 21 22 23 24 25 26 27 28 29 30 31 32 33 34 35 36 37 38 39
429
FTUS43 KOAX 110220 AAA
TAFOFK
TAF AMD
KOFK 110220Z 1102/1124 04008KT P6SM SCT015 BKN035
     FM110400 03007KT P6SM SCT015 OVC025
      TEMPO 1108/1112 3SM BR OVC008
     FM111600 16008KT 6SM BR OVC015
     FM112100 18012KT P6SM OVC025=

USA.gov is the U.S. government's official web portal to all federal, state and local government web resources and services.